Location: Unspecified
(48.5670°N, 0.0000°E)
Time: 17:10:09
(UTC+00:00)

Altair - Pass Details

Date: 29 August 2019
Orbit: 1501 x 1683 km, 47.2° (Epoch: 17 October)

Event Time Altitude Azimuth Distance (km) Brightness Sun altitude
Exits shadow 04:26:49 - 270° (W) 4,311 9.3 -7.9°
Reaches altitude 10° 04:28:17 10° 270° (W) 3,846 9.0 -7.7°
Maximum altitude 04:38:05 83° 184° (S) 1,586 7.6 -6.2°
Drops below altitude 10° 04:47:29 10° 98° (E) 3,703 10.7 -4.8°
Sets 04:50:28 0° 98° (E) 4,668 11.3 -4.3°
